Showing default

COSMOS 89, 1587

Orbit data source: Space-Track

COSMOS 89, 1587 is a payload satellite owned by OKB-10 (CIS) in LEO that was launched on Sat, 18 Sep 1965 UTC via a KOSMOS 65S3 launch vehicle from the Tyuratam Missile And Space Complex (TTMTR). Payloads include a variety of satellites, spacecraft, and rockets equipped with specific instruments for various scientific and technological missions. These include communications satellites like Starlink; space stations such as the ISS; scientific satellites like the Hubble; Earth observation satellites from companies like Planet Labs, Umbra, and HawkEye 360; GPS; miniature CubeSats for education and research; and military/defense satellites.

Loading next visibility...
COSMOS 89 details
Identifier
1587, 1965-073D
Orbit
LEO
Last TLE update5 hours ago
Origin
Flag of CISOKB-10 (CIS)
ManufacturerOKB-10
MissionDefense Communications
Bus & MotorSTRELA-1 11F610, Unknown motor
Mass50 kg wet, 50 kg dry
Launch date (UTC)
1965-09-18 (59 years ago)
Launch vehicle
KOSMOS 65S3
Launch site
Tyuratam Missile And Space Complex (TTMTR)
Object type
Payload
Rocket body
Debris
Shape & HBRPoly, 0.8 m
Radar Cross Section0.731 m², Medium (>0.1 m² and < 1m²)

Expand to show TLE details & history

TLE from 5 hours ago
0 COSMOS 89
1  1587U 65073D   24356.45525070 -.00000105  00000-0 -97315-4 0  9997
2  1587  56.0556 140.7646 0166053 312.8683  45.8373 12.38979024682078
Epoch: 2024-12-21T10:55Z
Definitive object data (Epoch: 2024-12-21T10:55:33.66Z)
Latitude-0°
Longitude-113.63181°
Altitude1,421.854 km
Speed7.191 km/s
True Right ascension09h 23m 03s
True Declination0° 00' 00"
Sunlit
Object was in full shadow at TLE epoch
Visualization TLE readout
Latitude-43.01322°
Longitude104.47428°
Altitude1,496.645 km
Speed7.129 km/s
Apparent Right ascension01h 23m 04s
Apparent Declination-44° 00' 44"
Sunlit
Object is in daylight
Visualization observer readout
Local Sidereal Time15:07:12
Azimuth110.537° ESE
Elevation-70.3°
Doppler factor1
Orbital elements
Apogee altitude1,641.756 km
Perigee altitude1,379.761 km
Semi-major axis7,888.896 km
Eccentricity0.0166053
Inclination56.0556°
RAAN140.7646°
Arg. of periapsis312.8683°
True anomaly47.2222°
Mean anomaly45.8373°
Eccentric anomaly46.52775°
Mean motion3.09755 °/min
BSTAR-0.000097315
Orbital period116.22 mins
Loading maneuver chart data...
Loading historical data...
Loading historical data...
Loading historical data...
Loading historical data...
Loading historical data...
Loading historical data...
Loading historical data...

COSMOS 89 Visibility forecast

Observer location: undefined°, undefined

Span
Click to sort rows by Start time (UTC) header in descending order
Start Az.
Max El. time (UTC)
Max El. Az.
Max El.
End time (UTC)
End Az.
16 mins2024-12-21 17:08:48.984Z312.323° NW2024-12-21 17:16:48.984Z9.987° NNE28.702°2024-12-21 17:24:48.984Z72.168° E
17 mins2024-12-21 19:12:48.984Z319.29° NNW2024-12-21 19:20:48.984Z46.196° ENE42.655°2024-12-21 19:29:48.984Z120.924° SE
15 mins2024-12-21 21:14:48.984Z298.272° NW2024-12-21 21:21:48.984Z239.868° WSW33.128°2024-12-21 21:29:48.984Z176.368° S
11 mins2024-12-22 10:16:48.984Z154.67° SSE2024-12-22 10:21:48.984Z114.364° SE21.64°2024-12-22 10:27:48.984Z70.28° E
16 mins2024-12-22 12:14:48.984Z222.695° SW2024-12-22 12:21:48.984Z218.497° SW44.885°2024-12-22 12:30:48.984Z45.758° ENE
15 mins2024-12-22 14:17:48.984Z277.049° WNW2024-12-22 14:24:48.984Z338.152° N31.772°2024-12-22 14:32:48.984Z41.871° NE
|